Regional Weather Roundup
Issued by NWS

Home | Current Version | Previous Version | Graphics & Text | Print | Product List | Glossary On
Versions: 1 2 3 4 5 6 7 8 9 10 11 12 13 14 15 16 17 18 19 20 21 22 23 24 25 26 27 28 29 30 31 32 33 34 35 36 37 38 39 40 41 42 43 44 45 46 47 48 49 50
000
ASUS43 KDTX 301801
RWRMI
MICHIGAN HOURLY REGIONAL WEATHER ROUNDUP
NATIONAL WEATHER SERVICE DETROIT/PONTIAC MI
200 PM EDT MON MAY 30 2016

NOTE: "FAIR" INDICATES FEW OR NO CLOUDS BELOW 12,000 FEET WITH NO
SIGNIFICANT WEATHER AND/OR OBSTRUCTION TO VISIBILITY.

MIZ047>049-052>055-059>063-066>070-074>076-081>083-301900-
SOUTHEAST LOWER MICHIGAN

CITY           SKY/WX    TMP DP  RH WIND       PRES   REMARKS
ADRIAN         MOSUNNY   81  53  37 NW7G18    30.02F
6HR MIN TEMP:  64; 6HR MAX TEMP:  83;

ALMA           PTSUNNY   77  55  45 W14       30.00S
ANN ARBOR      MOSUNNY   81  56  42 W10       30.01S
CARO           PTSUNNY   79  56  45 W9G18     29.98S
DETROIT CITY   MOSUNNY   81  54  39 W7G17     30.00S
6HR MIN TEMP:  68; 6HR MAX TEMP:  83;

DETROIT        MOSUNNY   82  57  42 VRB6G17   30.01S
6HR MIN TEMP:  68; 6HR MAX TEMP:  83;

FLINT          MOSUNNY   82  53  36 W10       30.00S
6HR MIN TEMP:  69; 6HR MAX TEMP:  83;

GROSSE ILE     MOSUNNY   79  63  57 S9        30.00S
HILLSDALE      MOSUNNY   82  42  24 NW12      30.03F
HOWELL         MOSUNNY   81  50  33 SW6       30.01S

CITY           SKY/WX    TMP DP  RH WIND       PRES   REMARKS
JACKSON        PTSUNNY   80  56  43 NW8       30.02S
6HR MIN TEMP:  65; 6HR MAX TEMP:  81;

LAMBERTVILLE   MOSUNNY   83  54  36 W7        30.01F
6HR MIN TEMP:  69; 6HR MAX TEMP:  83;

LANSING        MOSUNNY   80  56  43 W9G18     30.02S
6HR MIN TEMP:  65; 6HR MAX TEMP:  81;

LAPEER         PTSUNNY   78  53  40 NW7       30.00S
6HR MIN TEMP:  66; 6HR MAX TEMP:  79;

MASON          PTSUNNY   79  56  44 W6        30.02S
MONROE         MOSUNNY   83  59  44 W10       30.00S
6HR MIN TEMP:  67; 6HR MAX TEMP:  83;

MT. CLEMENS    PTSUNNY   78  61  55 SE8       29.99S
6HR MIN TEMP:  69; 6HR MAX TEMP:  80;

PONTIAC        PTSUNNY   80  54  40 W10       30.00S
6HR MIN TEMP:  66; 6HR MAX TEMP:  81;

PORT HOPE        N/A     77  54  44 W13G22    29.96S
6HR MIN TEMP:  67; 6HR MAX TEMP:  77;

PORT HURON     PTSUNNY   77  59  53 NW5       29.99F
TRI CITIES     PTSUNNY   81  57  43 NW13G20   29.99S
6HR MIN TEMP:  67; 6HR MAX TEMP:  81;

MIDLAND        FAIR      80  54  41 W12G20    29.97S
6HR MIN TEMP:  66; 6HR MAX TEMP:  80;

TROY           MOSUNNY   82  52  34 NW8G17    30.02S
SAGINAW HB     MOSUNNY   81  52  36 W12G17    29.98S
$$
MIZ043>046-050>051-056>058-064>065-071>073-077>080-301900-
SOUTHWEST LOWER MICHIGAN

CITY           SKY/WX    TMP DP  RH WIND       PRES   REMARKS
BATTLE CREEK   MOSUNNY   79  55  43 NW12G17   30.03F
6HR MIN TEMP:  65; 6HR MAX TEMP:  80;

BENTON HARBOR  SUNNY     76  60  57 W7        30.04F
6HR MIN TEMP:  65; 6HR MAX TEMP:  76;

BIG RAPIDS     MOSUNNY   76  52  42 W14       30.00S
6HR MIN TEMP:  62; 6HR MAX TEMP:  78;

COLDWATER      MOSUNNY   81  50  33 NW14G23   30.02F
6HR MIN TEMP:  66; 6HR MAX TEMP:  82;

FREMONT        FAIR      79  54  42 W13G18    30.01S
HOLLAND        SUNNY     79  57  46 SW9       30.04F
6HR MIN TEMP:  64; 6HR MAX TEMP:  79;

GRAND RAPIDS   MOSUNNY   80  56  43 W9        30.03R
6HR MIN TEMP:  66; 6HR MAX TEMP:  81;

IONIA          FAIR      81  53  37 W9G21     30.01S
6HR MIN TEMP:  65; 6HR MAX TEMP:  81;

KALAMAZOO      MOSUNNY   82  55  39 NW13      30.02F
6HR MIN TEMP:  65; 6HR MAX TEMP:  82;

LUDINGTON      SUNNY     71  59  66 W7        30.03S
6HR MIN TEMP:  61; 6HR MAX TEMP:  72;

MARSHALL       MOSUNNY   83  54  37 W10G17    30.02F
6HR MIN TEMP:  66; 6HR MAX TEMP:  83;

MOUNT PLEASANT MOSUNNY   79  55  42 W13G21    29.98S
6HR MIN TEMP:  65; 6HR MAX TEMP:  80;

MUSKEGON       MOSUNNY   76  57  51 W9        30.03S
6HR MIN TEMP:  61; 6HR MAX TEMP:  78;

SOUTH HAVEN    SUNNY     74  60  61 W7        30.04F
$$
MIZ016>042-301900-
NORTHERN LOWER MICHIGAN

CITY           SKY/WX    TMP DP  RH WIND       PRES   REMARKS
ALPENA         PTSUNNY   76  51  41 NW9G21    29.94S
6HR MIN TEMP:  64; 6HR MAX TEMP:  77;

BEAVER ISLAND  SUNNY     68  56  64 SW10      29.97F
6HR MIN TEMP:  57; 6HR MAX TEMP:  68;

BELLAIRE       SUNNY     74  52  45 W10G18    29.99R
6HR MIN TEMP:  63; 6HR MAX TEMP:  74;

CADILLAC       MOSUNNY   76  50  39 W16G25    30.00S
CHARLEVOIX     SUNNY     69  56  64 W15G22    30.02R
FRANKFORT      SUNNY     68  58  70 SW6       30.01F
GAYLORD        MOSUNNY   73  49  42 W17G26    29.99R
6HR MIN TEMP:  61; 6HR MAX TEMP:  75;

GRAYLING       MOSUNNY   77  48  35 W15G28    29.99S
HARBOR SPRINGS SUNNY     63  55  74 SW12G18   29.99R
HOUGHTON LAKE  MOSUNNY   76  49  38 W17G26    29.99S
6HR MIN TEMP:  62; 6HR MAX TEMP:  76;

OSCODA         MOSUNNY   79  46  30 W14G26    29.94F
6HR MIN TEMP:  67; 6HR MAX TEMP:  82;

PELLSTON       MOSUNNY   75  52  44 W14G23    29.96R
6HR MIN TEMP:  63; 6HR MAX TEMP:  75;

ROGERS CITY    MOSUNNY   74  50  42 W16G25    29.95R
TRAVERSE CITY  MOSUNNY   77  48  35 W15       29.98R
6HR MIN TEMP:  65; 6HR MAX TEMP:  78;

$$
MIZ007>008-015-301900-
EASTERN UPPER MICHIGAN

CITY           SKY/WX    TMP DP  RH WIND       PRES   REMARKS
KINROSS          N/A     72  52  49 W13       29.91R
6HR MIN TEMP:  61; 6HR MAX TEMP:  72;

MACKINAC ISLAN SUNNY     64  55  72 SW12G21   29.94S
6HR MIN TEMP:  58; 6HR MAX TEMP:  65;

NEWBERRY       PTSUNNY   70  51  50 W20G30    29.94S
6HR MIN TEMP:  60; 6HR MAX TEMP:  71;

S. S. MARIE    SUNNY     69  54  58 NW15G22   29.91S
6HR MIN TEMP:  54; 6HR MAX TEMP:  70;

MUNISING         N/A     64  52  64 N12       29.94S
6HR MIN TEMP:  58; 6HR MAX TEMP:  67;

$$
MIZ004>006-011>014-085-301900-
CENTRAL UPPER MICHIGAN

CITY           SKY/WX    TMP DP  RH WIND       PRES   REMARKS
MANISTIQUE     MOSUNNY   76  52  42 W7        29.94F
6HR MIN TEMP:  61; 6HR MAX TEMP:  76;

ESCANABA       MOSUNNY   77  48  36 W14       29.93F
6HR MIN TEMP:  61; 6HR MAX TEMP:  77;

MENOMINEE      MOSUNNY   77  48  35 NW10G16   29.99R
6HR MIN TEMP:  61; 6HR MAX TEMP:  77;

SAWYER-GWINN   MOSUNNY   73  45  35 NW16G26   29.96S
$$
MIZ001>003-009>011-084-301900-
WESTERN UPPER MICHIGAN

CITY           SKY/WX    TMP DP  RH WIND       PRES   REMARKS
IRON MOUNTAIN  MOSUNNY   77  44  30 NW15G23   29.97S
6HR MIN TEMP:  59; 6HR MAX TEMP:  77; 6HR PCP: TRACE;

HOUGHTON       SUNNY     70  51  51 W23G32    29.93S
6HR MIN TEMP:  55; 6HR MAX TEMP:  70;

COPPER HARBOR    N/A     65  52  62 N20G26    29.91R
6HR MIN TEMP:  58; 6HR MAX TEMP:  65;

IRONWOOD       MOSUNNY   73  46  38 W14G26    29.96F
6HR MIN TEMP:  55; 6HR MAX TEMP:  73;

$$

ABBREVIATIONS USED IN REMARKS
   TC - TEMPERATURE IN CELSIUS
  WCI - WIND CHILL INDEX
   HX - HEAT INDEX
  VSB - VISIBILITY





USA.gov is the U.S. government's official web portal to all federal, state and local government web resources and services.